Location: Pedholt
(56.0260°N, 10.2097°E)
Time: 03:59:17
(UTC+00:00)

Transit 2A Rocket - Pass Details

Date: 04 August 2021
Orbit: 586 x 916 km, 66.7° (Epoch: 21 September)

Event Time Altitude Azimuth Distance (km) Brightness Sun altitude
Rises 16:53:01 0° 291° (WNW) 3,046 9.5 18.5°
Reaches altitude 10° 16:55:38 10° 304° (NW) 2,186 8.6 18.2°
Maximum altitude 16:59:47 25° 1° (N) 1,475 6.7 17.6°
Drops below altitude 10° 17:04:15 10° 56° (ENE) 2,372 7.2 17.0°
Sets 17:07:13 0° 69° (ENE) 3,364 7.8 16.6°
